Regional Weather Roundup
Issued by NWS Upton, NY

Home | Current Version | Previous Version | Text Only | Print | Product List | Glossary On
Versions: 1 2 3 4 5 6 7 8 9 10 11 12 13 14 15 16 17 18 19 20 21 22 23 24 25 26 27 28 29 30 31 32 33 34 35 36 37 38 39 40 41 42 43 44 45 46 47 48 49 50
000
ASUS41 KOKX 280505
RWROKX

REGIONAL WEATHER ROUNDUP
NATIONAL WEATHER SERVICE NEW YORK NY
100 AM EDT SAT MAY 28 2016

NOTE: "FAIR" INDICATES FEW OR NO CLOUDS BELOW 12,000 FEET WITH NO
SIGNIFICANT WEATHER AND/OR OBSTRUCTIONS TO VISIBILITY.

NYZ071-072-176-178-NJZ106-104-280600-
NEW YORK CITY METRO AREA


CITY           SKY/WX    TMP DP  RH WIND       PRES   REMARKS
CENTRAL PARK   CLEAR     75  63  66 VRB6      30.10R
LAGUARDIA APRT PTCLDY    77  67  71 S8        30.07R
KENNEDY INTL   PTCLDY    66  59  78 S9        30.10R
NEWARK/LIBERTY PTCLDY    75  64  68 S13       30.07R
BRNX BOT. GARD   N/A    N/A N/A N/A E3        30.09S
TETERBORO      CLEAR     76  62  62 S5        30.06R
$$

NYZ177-179-078>081-280600-
LONG ISLAND NEW YORK

CITY           SKY/WX    TMP DP  RH WIND       PRES   REMARKS
FARMINGDALE    CLEAR     67  57  70 SW8       30.10R
ISLIP          PTCLDY    67  57  70 SW17      30.09S
SHIRLEY        PTCLDY    68  57  68 SW13G20   30.11R
RIVERHEAD        N/A     70  57  64 NW3       30.08S
WESTHAMPTON    CLOUDY    65  56  72 SW15G23   30.11S
EAST HAMPTON   FAIR      65  56  70 SW15G22   30.09S
MONTAUK POINT    N/A     64  56  75 SW12G20   30.10S
$$

NYZ052-065-067-280600-
HUDSON VALLEY

CITY           SKY/WX    TMP DP  RH WIND       PRES   REMARKS
WHITE PLAINS   CLEAR     67  61  81 S3        30.08R
NEWBURGH       PTCLDY    68  68 100 CALM      30.07S
MONTGOMERY     PTCLDY    67  66  97 CALM      30.05S FOG
POUGHKEEPSIE   CLEAR     70  66  87 CALM      30.04R
ALBANY         CLOUDY    73  67  81 CALM      30.03R
$$

NJZ001-105-106-008-010-013-015-019>022-104-280600-
NEW JERSEY

CITY           SKY/WX    TMP DP  RH WIND       PRES   REMARKS
NEWARK/LIBERTY PTCLDY    75  64  68 S13       30.07R
TETERBORO      CLEAR     76  62  62 S5        30.06R
CALDWELL       CLEAR     78  65  63 CALM      30.07R
MORRISTOWN     CLEAR     73  63  68 CALM      30.07R
SOMERVILLE     CLEAR     69  66  90 CALM      30.06R
SUSSEX         CLEAR     68  66  93 CALM      30.07R FOG
ANDOVER          N/A     74  67  78 CALM      30.08R
TRENTON        CLEAR     73  63  70 SW7       30.09R
MILLVILLE      CLEAR     69  58  67 S5        30.12S
ATLANTIC CITY  CLEAR     70  58  65 S12       30.12S
WRIGHTSTOWN    CLEAR     69  58  68 S8        30.08S
TOMS RIVER     CLEAR     70  52  52 S8        30.11S
BELMAR         CLEAR     71  55  56 S12       30.11R
$$

PAZ047>061-062-071-280600-
EASTERN PENNSYLVANIA

CITY           SKY/WX    TMP DP  RH WIND       PRES   REMARKS
PHILADELPHIA   PTCLDY    73  60  63 S8        30.10S
ALLENTOWN      PTCLDY    75  66  73 SW6       30.07S
SCRANTON       CLOUDY    70  65  84 CALM      30.08R
$$

CTZ002-004>006-009-010-012-RIZ004-006-007-MAZ004-011-015-280600-
SOUTHERN NEW ENGLAND
 IN CT

CITY           SKY/WX    TMP DP  RH WIND       PRES   REMARKS
BRADLEY INTL   PTCLDY    69  60  73 S9        30.05R
HARTFORD       PTCLDY    70  60  70 S7        30.06R
DANBURY        CLEAR     65  63  93 CALM      30.09R
WTRBRY/OXFORD    N/A     63  59  88 SW3       30.09S
BRIDGEPORT     PTCLDY    67  59  75 SW6       30.08R
MERIDEN        PTCLDY    68  59  73 CALM      30.07S
NEW HAVEN      CLOUDY    66  58  75 S7        30.08S
CHESTER        FAIR      66  57  72 SW7G14    30.08S
GROTON         CLOUDY    62  58  86 S3        30.08S
WILLIMANTIC    CLEAR     68  58  70 S5        30.08S

 IN RI

CITY           SKY/WX    TMP DP  RH WIND       PRES   REMARKS
PROVIDENCE     PTCLDY    68  54  60 SW9       30.08F
BLOCK ISLAND   PTCLDY    61  55  81 SW14      30.12R
WESTERLY       CLEAR     64  53  67 S8        30.10S

 IN MA

CITY           SKY/WX    TMP DP  RH WIND       PRES   REMARKS
BOSTON         CLOUDY    68  60  75 SW10      30.04S
WORCESTER      PTCLDY    66  60  81 SW12      30.07S
WESTFIELD      CLEAR     66  63  90 S5        30.05S
PROVINCETOWN   CLEAR     61  55  81 S14       30.08S
NANTUCKET      CLEAR     59  56  89 SW7       30.13S
$$

ANZ330-335-338-340-345-350-353-355-280600-
COASTAL MARINE OBSERVATIONS


STATION/POSITION TIME  SKY/WX   TEMP    WIND        PRES    VSBY  WAVE
                                AIR SEA DIR/SP/G                  HT/PER
                 (UTC)          (F)     (DEG/KT/KT) (MB)    (MI)  (FT/S)
NY HARB ENTRANCE 0350            63 58  210/ 19/ 21 1017.9          4/ 5
20S FIRE ISLAND  0350            63 59  210/ 19/ 23 1018.6          4/ 6
GREAT SOUTH BAY  0430            65 69  220/ 14/ 19   N/A
23 SSW MONTAUK P 0450            61 57  230/ 16/ 19 1018.9          5/ 6
15 E BARNEGAT LI 0422               59                N/A           4/ 6
HUDSON CANYON    0350            61 57              1020.4          3/ 5
KINGS POINT      0400            69 60              1018.0
EXECUTION ROCKS  NOT AVBL
CENTRAL LI SOUND NOT AVBL
EASTERN LI SOUND 0400            62 54  250/  8/ 10   N/A
ROBBINS REEF     0400            76     220/ 11/ 15 1017.4
$$


>>>>>>>>>>>>>>>>>>>>>>>>>>>> KEY <<<<<<<<<<<<<<<<<<<<<<<<<<<
>                                                          <
>     SKY/WX - SKY CONDITION/PRESENT WEATHER               <
>     TMP    - TEMPERATURE IN FAHRENHEIT                   <
>     DP     - DEWPOINT IN FAHRENHEIT                      <
>     RH     - RELATIVE HUMIDITY IN PERCENT                <
>     WIND   - DIRECTION AND SPEED IN MPH                  <
>     PRES   - MEAN SEA LEVEL PRESSURE IN INCHES OF HG     <
>     WCI    - WIND CHILL INDEX                            <
>     VSB    - VISIBILITY IN MILES                         <
>     HX     - HEAT INDEX                                  <
>     TC     - TEMPERATURE IN CELSIUS                      <
>     VRB    - VARIABLE WIND DIRECTION                     <
>                                                          <
>>>>>>>>>>>>>>>>>>>>>>>>>>>> KEY <<<<<<<<<<<<<<<<<<<<<<<<<<<





USA.gov is the U.S. government's official web portal to all federal, state and local government web resources and services.